Tracking 31027 objects as of 19-Jul-2025
HD Live streaming from Space Station
objects crossing your sky now

METEOR 2-17 DEB

Track METEOR 2-17 DEB now!
10-day predictions


NORAD ID: 28993
Int'l Code: 1988-005H
Perigee: 893.9 km
Apogee: 916.8 km
Inclination: 82.5 °
Period: 103.0 minutes
Semi major axis: 7276 km
RCS: 0.0011 m2 (small)
Launch date: January 30, 1988
Source: Commonwealth of Independent States (former USSR) (CIS)
Launch site: PLESETSK MISSILE AND SPACE COMPLEX (PKMTR)

Note: This is SATELLITE DEBRIS
Your satellite tracking list
STARLINK-30103
Track 1 satellite(s)




NASA's NSSDC Master Catalog

Two Line Element Set (TLE):
1 28993U 88005H   25197.65384071  .00001342  00000-0  92244-3 0  9994
2 28993  82.5282 181.6113 0015720 152.7365 207.4632 13.98725653543426
Source of the keplerian elements: AFSPC